Belize, Belize

10:51 AM CST on January 22, 2018 (GMT -0600)
Philip S W Goldson International

Weather History for MZBZ - January, 2013

Change the Weather History Date:

Friday, January 25, 2013

  Actual Average Record
Temperature  
Mean Temperature 72 °F -  
Max Temperature 75 °F - 87 °F (2002)
Min Temperature 68 °F - 32 °F (2002)
Cooling Degree Days 6    
Growing Degree Days 22 (Base 50)    
Moisture  
Dew Point 69 °F    
Average Humidity 90    
Maximum Humidity 100    
Minimum Humidity 74    
Precipitation  
Precipitation 0.08 in 0.11 in - ()
Sea Level Pressure  
Sea Level Pressure 30.11 in    
Wind  
Wind Speed 5 mph ()    
Max Wind Speed 12 mph    
Max Gust Speed -    
Visibility 7.5 miles    
Events Rain    
Averages and records for this station are not official NWS values.
T = Trace of Precipitation, MM = Missing Value Source: Averaged Metar Reports

Daily Weather History Graph

Daily Weather History Graph

Search for Another Location

Airport or City:

Trip Planner

Search our weather history database for the weather conditions in past years. The results will help you decide how hot, cold, wet, or windy it might be!

Date:

Astronomy

Jan. 25, 2013 Rise Set
Actual Time 6:26 AM CST 5:44 PM CST
Civil Twilight 6:03 AM CST 6:07 PM CST
Nautical Twilight 5:37 AM CST 6:34 PM CST
Astronomical Twilight 5:11 AM CST 7:00 PM CST
Moon 4:41 PM CST (1/25) 5:04 AM CST (1/25)
Length of Visible Light 12h 03m
Length of Day
11h 18m
Waxing Gibbous, 98% of the Moon is Illuminated
Jan 25
Waxing Gibbous
Jan 26
Full
Feb 3
Last Quarter
Feb 10
New
Feb 17
First Quarter

Hourly Weather History & Observations

Time (CST) Temp. Dew Point Humidity Pressure Visibility Wind Dir Wind Speed Gust Speed Precip Events Conditions
12:00 AM 69 °F 67 °F 92% 30.17 in 12 mi West 3.5 mph - -   Partly Cloudy
3:00 AM 69 °F 68 °F 94% 30.12 in 12 mi WNW 5.8 mph - -   Mostly Cloudy
5:00 AM 68.0 °F 68.0 °F 100% 30.09 in 6.2 mi WNW 11.5 mph - N/A   Mostly Cloudy
6:00 AM 69 °F 68 °F 94% 30.13 in 12 mi WNW 5.8 mph - -   Partly Cloudy
6:00 AM 69.8 °F 68.0 °F 94% 30.12 in 6.2 mi WNW 5.8 mph - N/A   Mostly Cloudy
7:00 AM 69.8 °F 68.0 °F 94% 30.12 in 6.2 mi West 4.6 mph - N/A   Mostly Cloudy
8:00 AM 69.8 °F 68.0 °F 94% 30.12 in 6.2 mi WNW 6.9 mph - N/A   Mostly Cloudy
9:00 AM 70 °F 68 °F 91% 30.17 in 12 mi NW 5.8 mph - -   Overcast
9:00 AM 69.8 °F 68.0 °F 94% 30.17 in 6.2 mi NW 5.8 mph - N/A   Mostly Cloudy
10:00 AM 71.6 °F 68.0 °F 88% 30.17 in 6.2 mi North 5.8 mph - N/A Rain Light Rain Showers
11:00 AM 73.4 °F 69.8 °F 88% 30.14 in 6.2 mi NW 8.1 mph - N/A   Mostly Cloudy
12:00 PM 75 °F 69 °F 78% 30.12 in 12 mi WNW 8.1 mph - -   Partly Cloudy
12:00 PM 75.2 °F 69.8 °F 83% 30.12 in 6.2 mi WNW 8.1 mph - N/A   Mostly Cloudy
1:00 PM 77.0 °F 69.8 °F 78% 30.09 in 6.2 mi NW 6.9 mph - N/A   Mostly Cloudy
2:00 PM 78.8 °F 69.8 °F 74% 30.07 in 6.2 mi West 5.8 mph - N/A   Mostly Cloudy
3:00 PM 75 °F 71 °F 84% 30.06 in 11 mi WSW 3.5 mph - - Rain Light Rain Showers
3:00 PM 75.2 °F 71.6 °F 89% 30.06 in 6.2 mi WSW 3.5 mph - N/A Rain Light Rain Showers
4:00 PM 75.2 °F 73.4 °F 94% 30.06 in 6.2 mi WSW 2.3 mph - N/A   Mostly Cloudy
5:00 PM 75.2 °F 71.6 °F 89% 30.07 in 3.1 mi Calm Calm - N/A Rain Light Rain Showers
6:00 PM 71 °F 69 °F 91% 30.09 in 3 mi North 4.6 mph - - Rain Light Rain
6:00 PM 69.8 °F 69.8 °F 100% 30.08 in 3.1 mi North 4.6 mph - N/A Rain Rain
9:00 PM 71 °F 70 °F 95% 30.12 in 11 mi NW 3.5 mph - -   Partly Cloudy